• In India
  • List of Countries
  • For 7 days
  • Water Temperature
  • Satellite Maps
  • Weather Map
  • Weather Widgets
  • user-avatar
    Login

    Hourly Weather Lankaran

    Today, 24 June, Sunday

    Time Temperature Precipitation Wind Pressure Humidity
    00:00 +16°C° 0 mm 1 mps 632 mmHg 69%
    01:00 +15°C° 0 mm 1 mps 632 mmHg 69%
    02:00 +15°C° 0 mm 1 mps 632 mmHg 69%
    03:00 +15°C° 0 mm 1 mps 632 mmHg 70%
    04:00 +16°C° 0 mm 1 mps 632 mmHg 65%
    05:00 +18°C° 0 mm 1 mps 633 mmHg 60%
    06:00 +20°C° 0 mm 1 mps 634 mmHg 55%
    07:00 +20°C° 0 mm 2 mps 634 mmHg 51%
    08:00 +23°C° 0 mm 2 mps 634 mmHg 47%
    09:00 +25°C° 0 mm 3 mps 635 mmHg 43%
    10:00 +26°C° 0 mm 3 mps 635 mmHg 40%
    11:00 +27°C° 0 mm 3 mps 635 mmHg 38%
    12:00 +27°C° 0 mm 4 mps 635 mmHg 35%
    13:00 +28°C° 0 mm 4 mps 635 mmHg 35%
    14:00 +28°C° 0 mm 4 mps 635 mmHg 34%
    15:00 +28°C° 0 mm 4 mps 635 mmHg 34%
    16:00 +27°C° 0 mm 4 mps 635 mmHg 37%
    17:00 +25°C° 0 mm 3 mps 634 mmHg 40%
    18:00 +24°C° 0 mm 3 mps 634 mmHg 44%
    19:00 +21°C° 0 mm 3 mps 634 mmHg 49%
    20:00 +19°C° 0 mm 2 mps 633 mmHg 54%
    21:00 +18°C° 0 mm 1 mps 633 mmHg 60%
    22:00 +18°C° 0 mm 1 mps 633 mmHg 58%
    23:00 +18°C° 0 mm 1 mps 633 mmHg 56%

    Tomorrow, 25 June, Monday

    Time Temperature Precipitation Wind Pressure Humidity
    00:00 +16°C° 0 mm 1 mps 633 mmHg 54%
    01:00 +16°C° 0 mm 1 mps 633 mmHg 53%
    02:00 +16°C° 0 mm 1 mps 633 mmHg 52%
    03:00 +15°C° 0 mm 1 mps 633 mmHg 51%
    04:00 +16°C° 0 mm 1 mps 634 mmHg 48%
    05:00 +17°C° 0 mm 2 mps 635 mmHg 46%
    06:00 +19°C° 0 mm 2 mps 635 mmHg 43%
    07:00 +20°C° 0 mm 2 mps 636 mmHg 39%
    08:00 +22°C° 0 mm 3 mps 636 mmHg 36%
    09:00 +25°C° 0 mm 3 mps 636 mmHg 32%
    10:00 +26°C° 0 mm 3 mps 636 mmHg 31%
    11:00 +27°C° 0 mm 3 mps 636 mmHg 31%
    12:00 +28°C° 0 mm 4 mps 636 mmHg 30%
    13:00 +28°C° 0 mm 4 mps 636 mmHg 30%
    14:00 +28°C° 0 mm 4 mps 636 mmHg 30%
    15:00 +28°C° 0 mm 4 mps 636 mmHg 30%
    16:00 +27°C° 0 mm 3 mps 635 mmHg 33%
    17:00 +25°C° 0 mm 3 mps 635 mmHg 36%
    18:00 +24°C° 0 mm 2 mps 634 mmHg 40%
    19:00 +21°C° 0 mm 2 mps 634 mmHg 43%
    20:00 +19°C° 0 mm 2 mps 634 mmHg 46%
    21:00 +17°C° 0 mm 2 mps 634 mmHg 49%
    22:00 +18°C° 0 mm 1 mps 634 mmHg 47%
    23:00 +18°C° 0 mm 1 mps 633 mmHg 45%

    Day after tomorrow, 26 June, Tuesday

    Time Temperature Precipitation Wind Pressure Humidity
    00:00 +18°C° 0 mm 1 mps 633 mmHg 43%
    01:00 +18°C° 0 mm 1 mps 633 mmHg 42%
    02:00 +16°C° 0 mm 1 mps 633 mmHg 41%
    03:00 +16°C° 0 mm 2 mps 633 mmHg 40%
    04:00 +19°C° 0 mm 1 mps 633 mmHg 39%
    05:00 +20°C° 0 mm 1 mps 633 mmHg 38%
    06:00 +21°C° 0 mm 1 mps 634 mmHg 37%
    07:00 +23°C° 0 mm 2 mps 634 mmHg 34%
    08:00 +25°C° 0 mm 2 mps 635 mmHg 32%
    09:00 +26°C° 0 mm 3 mps 635 mmHg 30%
    10:00 +27°C° 0 mm 3 mps 635 mmHg 30%
    11:00 +28°C° 0 mm 3 mps 635 mmHg 29%
    12:00 +29°C° 0 mm 4 mps 635 mmHg 29%
    13:00 +29°C° 0 mm 4 mps 635 mmHg 30%
    14:00 +29°C° 0 mm 4 mps 634 mmHg 31%
    15:00 +29°C° 0 mm 4 mps 634 mmHg 32%
    16:00 +28°C° 0 mm 3 mps 634 mmHg 37%
    17:00 +27°C° 0 mm 3 mps 633 mmHg 41%
    18:00 +25°C° 0 mm 2 mps 633 mmHg 46%
    19:00 +23°C° 0 mm 2 mps 633 mmHg 52%
    20:00 +21°C° 0 mm 1 mps 633 mmHg 58%
    21:00 +19°C° 0 mm 1 mps 632 mmHg 63%
    22:00 +19°C° 0 mm 1 mps 632 mmHg 61%
    23:00 +19°C° 0 mm 1 mps 632 mmHg 59%

    27 June, Wednesday

    Time Temperature Precipitation Wind Pressure Humidity
    00:00 +19°C° 0 mm 1 mps 632 mmHg 57%
    01:00 +19°C° 0 mm 1 mps 632 mmHg 57%
    02:00 +18°C° 0 mm 1 mps 632 mmHg 57%
    03:00 +18°C° 0 mm 1 mps 632 mmHg 57%
    04:00 +19°C° 0 mm 1 mps 632 mmHg 53%
    05:00 +21°C° 0 mm 1 mps 632 mmHg 50%
    06:00 +22°C° 0 mm 1 mps 633 mmHg 46%
    07:00 +24°C° 0 mm 1 mps 633 mmHg 41%
    08:00 +26°C° 0 mm 2 mps 634 mmHg 36%
    09:00 +27°C° 0 mm 2 mps 634 mmHg 31%
    10:00 +28°C° 0 mm 3 mps 634 mmHg 29%
    11:00 +29°C° 0 mm 3 mps 634 mmHg 27%
    12:00 +30°C° 0 mm 4 mps 634 mmHg 26%
    13:00 +30°C° 0 mm 4 mps 634 mmHg 26%
    14:00 +30°C° 0 mm 4 mps 634 mmHg 26%
    15:00 +32°C° 0 mm 4 mps 634 mmHg 26%
    16:00 +29°C° 0 mm 3 mps 633 mmHg 30%
    17:00 +28°C° 0 mm 3 mps 633 mmHg 34%
    18:00 +26°C° 0 mm 3 mps 633 mmHg 38%
    19:00 +24°C° 0 mm 2 mps 633 mmHg 43%
    20:00 +21°C° 0 mm 2 mps 632 mmHg 48%
    21:00 +20°C° 0 mm 1 mps 632 mmHg 53%
    22:00 +20°C° 0 mm 1 mps 632 mmHg 52%
    23:00 +20°C° 0 mm 1 mps 632 mmHg 51%

    28 June, Thursday

    Time Temperature Precipitation Wind Pressure Humidity
    00:00 +19°C° 0 mm 1 mps 632 mmHg 50%
    01:00 +19°C° 0 mm 1 mps 632 mmHg 49%
    02:00 +19°C° 0 mm 1 mps 632 mmHg 49%
    03:00 +19°C° 0 mm 1 mps 632 mmHg 49%
    04:00 +20°C° 0 mm 1 mps 633 mmHg 46%
    05:00 +21°C° 0 mm 1 mps 634 mmHg 43%
    06:00 +23°C° 0 mm 1 mps 634 mmHg 41%
    07:00 +24°C° 0 mm 1 mps 635 mmHg 35%
    08:00 +26°C° 0 mm 2 mps 635 mmHg 30%
    09:00 +28°C° 0 mm 3 mps 636 mmHg 25%
    10:00 +29°C° 0 mm 3 mps 636 mmHg 24%
    11:00 +30°C° 0 mm 4 mps 636 mmHg 22%
    12:00 +32°C° 0 mm 4 mps 636 mmHg 21%
    13:00 +30°C° 0 mm 4 mps 636 mmHg 22%
    14:00 +30°C° 0 mm 4 mps 636 mmHg 22%
    15:00 +30°C° 0 mm 4 mps 636 mmHg 22%
    16:00 +29°C° 0 mm 4 mps 635 mmHg 25%
    17:00 +27°C° 0 mm 3 mps 635 mmHg 28%
    18:00 +26°C° 0 mm 3 mps 635 mmHg 31%
    19:00 +24°C° 0 mm 2 mps 635 mmHg 35%
    20:00 +21°C° 0 mm 2 mps 634 mmHg 38%
    21:00 +19°C° 0 mm 2 mps 634 mmHg 41%
    22:00 +19°C° 0 mm 2 mps 634 mmHg 40%
    23:00 +18°C° 0 mm 2 mps 634 mmHg 38%

    29 June, Friday

    Time Temperature Precipitation Wind Pressure Humidity
    00:00 +19°C° 0 mm 1 mps 633 mmHg 36%
    01:00 +19°C° 0 mm 1 mps 633 mmHg 36%
    02:00 +18°C° 0 mm 1 mps 633 mmHg 36%
    03:00 +18°C° 0 mm 1 mps 633 mmHg 35%
    04:00 +20°C° 0 mm 1 mps 634 mmHg 34%
    05:00 +21°C° 0 mm 1 mps 634 mmHg 33%
    06:00 +23°C° 0 mm 1 mps 635 mmHg 31%
    07:00 +25°C° 0 mm 1 mps 635 mmHg 28%
    08:00 +26°C° 0 mm 2 mps 636 mmHg 24%
    09:00 +28°C° 0 mm 2 mps 636 mmHg 21%
    10:00 +29°C° 0 mm 3 mps 636 mmHg 19%
    11:00 +30°C° 0 mm 3 mps 636 mmHg 18%
    12:00 +31°C° 0 mm 3 mps 636 mmHg 17%
    13:00 +31°C° 0 mm 3 mps 635 mmHg 18%
    14:00 +32°C° 0 mm 4 mps 635 mmHg 18%
    15:00 +32°C° 0 mm 4 mps 635 mmHg 18%
    16:00 +30°C° 0 mm 3 mps 634 mmHg 21%
    17:00 +29°C° 0 mm 3 mps 634 mmHg 23%
    18:00 +27°C° 0 mm 3 mps 634 mmHg 26%
    19:00 +25°C° 0 mm 2 mps 633 mmHg 29%
    20:00 +23°C° 0 mm 2 mps 633 mmHg 32%
    21:00 +20°C° 0 mm 2 mps 633 mmHg 35%
    22:00 +19°C° 0 mm 2 mps 633 mmHg 35%
    23:00 +20°C° 0 mm 1 mps 632 mmHg 35%
    Show more